This is the latest recevied weather packets stored in our database for station/object VK4AB-13. If no packets are shown the sender has not sent any weather packets the latest 1 day(s).
| Time | Temp. | Humidity | Pressure | Rain* | Wind** | Luminosity | Snow |
|---|---|---|---|---|---|---|---|
| 1778038725 | 25.56° C | 66% | 1015 hPa | 0 mm | 1.34 m/s, 128° | 308 W/m² | - |
| 1778038425 | 25.56° C | 66% | 1015 hPa | 0 mm | 1.34 m/s, 119° | 413 W/m² | - |
| 1778038125 | 25.56° C | 67% | 1015 hPa | 0 mm | 1.34 m/s, 44° | 220 W/m² | - |
| 1778037825 | 25.56° C | 66% | 1015.1 hPa | 0 mm | 1.34 m/s, 137° | 181 W/m² | - |
| 1778037525 | 26.11° C | 67% | 1015 hPa | 0 mm | 0.89 m/s, 158° | 172 W/m² | - |
| 1778037225 | 26.11° C | 66% | 1015.2 hPa | 0 mm | 0.89 m/s, 159° | 144 W/m² | - |
| 1778036925 | 26.11° C | 66% | 1015.2 hPa | 0 mm | 0.89 m/s, 167° | 142 W/m² | - |
| 1778036625 | 26.11° C | 66% | 1015.2 hPa | 0 mm | 0.89 m/s, 167° | 151 W/m² | - |
| 1778036325 | 26.11° C | 65% | 1015.2 hPa | 0 mm | 0.89 m/s, 170° | 160 W/m² | - |
| 1778036025 | 26.67° C | 65% | 1015.2 hPa | 0 mm | 0.89 m/s, 168° | 211 W/m² | - |
| 1778035725 | 26.67° C | 64% | 1015.2 hPa | 0 mm | 0.89 m/s, 168° | 253 W/m² | - |
| 1778035425 | 26.67° C | 64% | 1015.3 hPa | 0 mm | 0.89 m/s, 113° | 271 W/m² | - |
| 1778035125 | 26.67° C | 64% | 1015.4 hPa | 0 mm | 0.89 m/s, 57° | 218 W/m² | - |
| 1778034825 | 26.67° C | 65% | 1015.5 hPa | 0 mm | 0.89 m/s, 167° | 313 W/m² | - |
| 1778034525 | 26.67° C | 64% | 1015.5 hPa | 0 mm | 0.45 m/s, 171° | 274 W/m² | - |
| 1778034225 | 26.67° C | 64% | 1015.5 hPa | 0 mm | 0.89 m/s, 172° | 265 W/m² | - |
| 1778033925 | 26.67° C | 65% | 1015.7 hPa | 0 mm | 0.89 m/s, 171° | 188 W/m² | - |
| 1778033625 | 26.67° C | 65% | 1015.8 hPa | 0 mm | 0.89 m/s, 171° | 199 W/m² | - |
| 1778033325 | 26.67° C | 65% | 1015.8 hPa | 0 mm | 0.89 m/s, 164° | 283 W/m² | - |
| 1778033025 | 26.11° C | 65% | 1015.9 hPa | 0 mm | 0.45 m/s, 162° | 229 W/m² | - |
| 1778032725 | 26.11° C | 65% | 1016 hPa | 0 mm | 0.45 m/s, 162° | 316 W/m² | - |
| 1778032425 | 26.11° C | 65% | 1016.1 hPa | 0 mm | 0.45 m/s, 160° | 236 W/m² | - |
| 1778032125 | 26.11° C | 66% | 1016.2 hPa | 0 mm | 0 m/s | 287 W/m² | - |
| 1778031825 | 26.11° C | 66% | 1016.3 hPa | 0 mm | 0.45 m/s, 155° | 306 W/m² | - |
| 1778031525 | 26.11° C | 66% | 1016.3 hPa | 0 mm | 0.45 m/s, 160° | 190 W/m² | - |
* Rain latest hour (hover to see other rain measurements)
** Current wind speed in m/s (hover to see current wind gust speed)